Tracking 35275 objects as of 8-Sep-2026
HD Live streaming from Space Station
objects crossing your sky now

SL-12 R/B(1)


SL-12 R/B(1) is no longer on orbit


NORAD ID: 19074
Int'l Code: 1988-034B
Launch date: April 26, 1988
Source: Commonwealth of Independent States (former USSR) (CIS)
Launch site: TYURATAM MISSILE AND SPACE COMPLEX (TTMTR)
Decay date: 1988-04-28

Note: This is a ROCKET BODY
Your satellite tracking list
Your tracking list is empty




NASA's NSSDC Master Catalog

Two Line Element Set (TLE):
1 19074U 88034  B 88118.47461367  .03206275 +55566-4 +36365-3 0  9990
2 19074 051.6302 265.1685 0005436 182.1612 177.9398 16.36139917000226
Source of the keplerian elements: AFSPC